Satellite: MET-3/5
Catalog number: 21655
Epoch time:      08310.95185607
Element set:    0594
Inclination:      082.5596 deg
RA of node:       004.2250 deg
Eccentricity:    0.0014166
Arg of perigee:   024.3742 deg
Mean anomaly:     335.8048 deg
Mean motion:   13.17017127 rev/day
Decay rate:        5.1e-07 rev/day^2
Epoch rev:           82824
Checksum:              288

Satellite: MET-2/21
Catalog number: 22782
Epoch time:      08310.65610044
Element set:    0295
Inclination:      082.5498 deg
RA of node:       359.3453 deg
Eccentricity:    0.0020941
Arg of perigee:   252.6785 deg
Mean anomaly:     107.2083 deg
Mean motion:   13.83631811 rev/day
Decay rate:       -2.6e-07 rev/day^2
Epoch rev:           76669
Checksum:              309

Satellite: OKEAN-4
Catalog number: 23317
Epoch time:      08310.78440425
Element set:    0741
Inclination:      082.5396 deg
RA of node:       182.9510 deg
Eccentricity:    0.0023128
Arg of perigee:   024.4212 deg
Mean anomaly:     335.8062 deg
Mean motion:   14.82648310 rev/day
Decay rate:       1.63e-06 rev/day^2
Epoch rev:           75926
Checksum:              281

Satellite: NOAA-14
Catalog number: 23455
Epoch time:      08310.81158261
Element set:    0375
Inclination:      098.9334 deg
RA of node:       023.0384 deg
Eccentricity:    0.0010360
Arg of perigee:   104.2470 deg
Mean anomaly:     255.9830 deg
Mean motion:   14.13751819 rev/day
Decay rate:        1.4e-07 rev/day^2
Epoch rev:           71436
Checksum:              276

Satellite: NOAA-15
Catalog number: 25338
Epoch time:      08310.79886284
Element set:    0687
Inclination:      098.5670 deg
RA of node:       299.1471 deg
Eccentricity:    0.0010497
Arg of perigee:   354.6905 deg
Mean anomaly:     005.4152 deg
Mean motion:   14.24731019 rev/day
Decay rate:        6.8e-07 rev/day^2
Epoch rev:           54496
Checksum:              335

Satellite: RESURS
Catalog number: 25394
Epoch time:      08310.95686651
Element set:    0088
Inclination:      098.3698 deg
RA of node:       348.3365 deg
Eccentricity:    0.0001891
Arg of perigee:   113.9038 deg
Mean anomaly:     246.2340 deg
Mean motion:   14.24174508 rev/day
Decay rate:       -8.0e-08 rev/day^2
Epoch rev:           53662
Checksum:              315

Satellite: FENGYUN1
Catalog number: 25730
Epoch time:      08310.92174424
Element set:    0640
Inclination:      098.7372 deg
RA of node:       282.0008 deg
Eccentricity:    0.0021092
Arg of perigee:   122.1458 deg
Mean anomaly:     238.1762 deg
Mean motion:   14.07837896 rev/day
Decay rate:       6.02e-06 rev/day^2
Epoch rev:           48890
Checksum:              294

Satellite: OKEAN-0
Catalog number: 25860
Epoch time:      08311.85353301
Element set:     517
Inclination:      097.7645 deg
RA of node:       296.1964 deg
Eccentricity:    0.0001168
Arg of perigee:   101.8210 deg
Mean anomaly:     258.3127 deg
Mean motion:   14.73543009 rev/day
Decay rate:        3.4e-07 rev/day^2
Epoch rev:           50040
Checksum:              270

Satellite: NOAA-16
Catalog number: 26536
Epoch time:      08310.80803415
Element set:    0161
Inclination:      099.1694 deg
RA of node:       303.1769 deg
Eccentricity:    0.0010472
Arg of perigee:   184.1789 deg
Mean anomaly:     175.9254 deg
Mean motion:   14.12502092 rev/day
Decay rate:        9.7e-07 rev/day^2
Epoch rev:           41876
Checksum:              309

Satellite: NOAA-17
Catalog number: 27453
Epoch time:      08310.84669148
Element set:    0161
Inclination:      098.5174 deg
RA of node:       011.2507 deg
Eccentricity:    0.0012483
Arg of perigee:   058.9892 deg
Mean anomaly:     301.2490 deg
Mean motion:   14.24015656 rev/day
Decay rate:       1.65e-06 rev/day^2
Epoch rev:           33096
Checksum:              300

Satellite: NOAA-18
Catalog number: 28654
Epoch time:      08310.85621303
Element set:    0648
Inclination:      098.8825 deg
RA of node:       250.1220 deg
Eccentricity:    0.0013488
Arg of perigee:   274.8677 deg
Mean anomaly:     085.0957 deg
Mean motion:   14.11205238 rev/day
Decay rate:      -1.40e-06 rev/day^2
Epoch rev:           17845
Checksum:              311

/EX
SB KEPS @ AMSAT  $ORB08311.M
Orbital Elements  08311.MISC

HR AMSAT ORBITAL ELEMENTS FOR MANNED AND MISCELLANEOUS SATELLITES
FROM WA5QGD FORT WORTH,TX November 6, 2008
Send Subscribe/unsubscribe to KEPS at 
http://www.amsat.org/mailman/listinfo/keps
BID: ORB08311.M
TO ALL RADIO AMATEURS BT

Satellite: HUBBLE
Catalog number: 20580
Epoch time:      08310.89394325
Element set:    0257
Inclination:      028.4677 deg
RA of node:       118.9489 deg
Eccentricity:    0.0003708
Arg of perigee:   091.0297 deg
Mean anomaly:     269.0718 deg
Mean motion:   15.00424891 rev/day
Decay rate:       3.52e-06 rev/day^2
Epoch rev:           81628
Checksum:              315

Satellite: PO-34
Catalog number: 25520
Epoch time:      08310.35738533
Element set:    0118
Inclination:      028.4609 deg
RA of node:       313.6189 deg
Eccentricity:    0.0004968
Arg of perigee:   023.1624 deg
Mean anomaly:     336.9191 deg
Mean motion:   15.17252854 rev/day
Decay rate:       4.35e-06 rev/day^2
Epoch rev:           55462
Checksum:              301

